Etusivu
METAR-TAF:

METAR-TAF

Lentoasemat :

Uppsala, Ruotsi

Leveyspiiri: 59-53N, Pituuspiiri: 017-36E, korkeus merenpinnasta: 21 m

METAR: puuttuu

Aika: 08:41 (06:41 UTC)

Sääennuste

Tämä raportti tehtiin 41 minuuttia sitten, kello 06.00 UTC
Ennuste voimassa 24. päivästä klo 06 UTC - 24. päivään klo 14 UTC
Tuuli 3 kn eri suunnista
Näkyvyys 10 km tai enemmän
ei pilviä alle 1500 m:ssä eikä cumulonimbus-pilviä

TAF: ESCM 240600Z 2406/2414 VRB03KT CAVOK RMK MIL

Säähavainnot ja -ennusteet yli 4000 lentoasemalta (METAR- ja TAF-raportit).

Käytössä olevat sääasemat on merkitty karttaan keltaisilla ja punaisilla pisteillä.

Aseta hiiri pisteen päälle nähdäksesi sääaseman nimen.

Klikkaa sitten nähdäksesi säähavainnot ja -ennusteet.

Kartan vaihtaminen: klikkaa mustalla rastilla varustettuja vihreitä pisteitä, niin voit zoomata sisään; viivalla varustettua vihreää pistettä, niin voit zoomata ulos tai vihreitä nuolia, niin pääset viereisille kartoille.


METAR-TAF: